TimeCDT,TemperatureF,Dew PointF,Humidity,Sea Level PressureIn,VisibilityMPH,Wind Direction,Wind SpeedMPH,Gust SpeedMPH,PrecipitationIn,Events,Conditions,WindDirDegrees,DateUTC
12:55 AM,51.4,44.6,77,30.03,10.0,North,4.6,-,N/A,,Clear,350,2013-05-09 05:55:00
1:15 AM,49.5,43.7,81,30.04,10.0,WNW,4.6,-,N/A,,Clear,290,2013-05-09 06:15:00
1:35 AM,48.4,43.9,84,30.04,10.0,NW,3.5,-,N/A,,Clear,310,2013-05-09 06:35:00
1:55 AM,48.4,43.7,84,30.05,10.0,NW,4.6,-,N/A,,Clear,310,2013-05-09 06:55:00
2:15 AM,49.1,44.6,84,30.04,10.0,North,6.9,-,N/A,,Scattered Clouds,350,2013-05-09 07:15:00
2:55 AM,50.0,44.6,82,30.04,10.0,NW,3.5,-,N/A,,Clear,320,2013-05-09 07:55:00
3:55 AM,48.4,44.8,87,30.03,10.0,NNW,8.1,-,N/A,,Clear,340,2013-05-09 08:55:00
4:35 AM,51.1,46.6,85,30.02,10.0,NNW,13.8,-,N/A,,Mostly Cloudy,340,2013-05-09 09:35:00
4:55 AM,52.0,47.3,84,30.01,10.0,North,15.0,19.6,N/A,,Overcast,350,2013-05-09 09:55:00
5:15 AM,52.3,47.7,84,30.01,10.0,North,16.1,-,N/A,,Overcast,350,2013-05-09 10:15:00
6:15 AM,52.2,48.4,87,30.03,10.0,North,11.5,23.0,N/A,,Overcast,350,2013-05-09 11:15:00
6:35 AM,52.3,48.7,88,30.04,7.0,North,13.8,19.6,N/A,,Overcast,360,2013-05-09 11:35:00
7:55 AM,52.7,48.4,85,30.07,10.0,North,12.7,21.9,N/A,,Overcast,10,2013-05-09 12:55:00
8:15 AM,52.7,48.4,85,30.08,10.0,North,12.7,18.4,N/A,,Overcast,10,2013-05-09 13:15:00
8:35 AM,52.9,48.4,85,30.08,10.0,North,17.3,25.3,N/A,,Overcast,360,2013-05-09 13:35:00
9:35 AM,53.4,48.4,83,30.09,10.0,North,17.3,24.2,N/A,,Overcast,360,2013-05-09 14:35:00
9:55 AM,53.6,48.4,82,30.10,10.0,North,12.7,20.7,N/A,,Overcast,360,2013-05-09 14:55:00
10:35 AM,56.7,48.0,73,30.10,10.0,North,15.0,23.0,N/A,,Overcast,10,2013-05-09 15:35:00
10:55 AM,57.0,46.8,69,30.10,10.0,North,17.3,28.8,N/A,,Mostly Cloudy,10,2013-05-09 15:55:00
11:15 AM,57.2,46.4,67,30.11,10.0,NNE,20.7,26.5,N/A,,Overcast,30,2013-05-09 16:15:00
11:35 AM,56.3,46.8,70,30.12,10.0,NNE,16.1,-,N/A,,Overcast,30,2013-05-09 16:35:00
12:15 PM,61.3,46.8,59,30.11,10.0,NNE,18.4,24.2,N/A,,Mostly Cloudy,20,2013-05-09 17:15:00
12:35 PM,59.5,46.2,61,30.11,10.0,NNE,18.4,21.9,N/A,,Mostly Cloudy,30,2013-05-09 17:35:00
12:55 PM,61.5,45.3,55,30.11,10.0,NNE,17.3,20.7,N/A,,Overcast,20,2013-05-09 17:55:00
1:15 PM,64.0,44.6,49,30.11,10.0,NNE,21.9,27.6,N/A,,Mostly Cloudy,20,2013-05-09 18:15:00
1:35 PM,64.8,43.9,47,30.10,10.0,NE,18.4,24.2,N/A,,Mostly Cloudy,40,2013-05-09 18:35:00
1:55 PM,63.9,43.9,48,30.10,10.0,NNE,15.0,24.2,N/A,,Mostly Cloudy,30,2013-05-09 18:55:00
2:15 PM,64.2,43.9,48,30.11,10.0,NNE,13.8,23.0,N/A,,Mostly Cloudy,30,2013-05-09 19:15:00
2:35 PM,65.1,43.7,46,30.10,10.0,NNE,17.3,-,N/A,,Overcast,30,2013-05-09 19:35:00
2:55 PM,65.3,43.0,44,30.10,10.0,NNE,17.3,24.2,N/A,,Overcast,30,2013-05-09 19:55:00
3:15 PM,66.7,43.5,43,30.10,10.0,NE,16.1,21.9,N/A,,Mostly Cloudy,40,2013-05-09 20:15:00
3:35 PM,66.4,43.3,43,30.10,10.0,NNE,10.4,21.9,N/A,,Mostly Cloudy,20,2013-05-09 20:35:00
3:55 PM,66.0,42.8,43,30.09,10.0,NNE,17.3,25.3,N/A,,Scattered Clouds,30,2013-05-09 20:55:00
4:15 PM,66.7,42.1,41,30.08,10.0,NNE,19.6,26.5,N/A,,Scattered Clouds,20,2013-05-09 21:15:00
4:35 PM,65.7,42.4,43,30.09,10.0,NE,15.0,23.0,N/A,,Mostly Cloudy,50,2013-05-09 21:35:00
4:55 PM,65.8,41.7,41,30.08,10.0,NE,13.8,21.9,N/A,,Mostly Cloudy,40,2013-05-09 21:55:00
5:15 PM,66.9,40.8,39,30.08,10.0,NNE,16.1,21.9,N/A,,Scattered Clouds,20,2013-05-09 22:15:00
5:35 PM,66.4,41.2,40,30.07,10.0,NE,18.4,24.2,N/A,,Scattered Clouds,40,2013-05-09 22:35:00
5:55 PM,66.0,39.2,37,30.08,10.0,NNE,15.0,21.9,N/A,,Scattered Clouds,30,2013-05-09 22:55:00
6:15 PM,65.7,39.6,38,30.08,10.0,NE,17.3,21.9,N/A,,Scattered Clouds,40,2013-05-09 23:15:00
6:35 PM,65.7,39.2,38,30.08,10.0,NNE,15.0,20.7,N/A,,Clear,20,2013-05-09 23:35:00
6:55 PM,64.6,40.3,41,30.08,10.0,NE,11.5,21.9,N/A,,Scattered Clouds,40,2013-05-09 23:55:00
7:15 PM,65.3,39.7,39,30.08,10.0,NNE,10.4,-,N/A,,Scattered Clouds,30,2013-05-10 00:15:00
7:35 PM,64.6,39.4,40,30.09,10.0,NNE,12.7,23.0,N/A,,Scattered Clouds,30,2013-05-10 00:35:00
7:55 PM,63.5,40.1,42,30.09,10.0,NE,8.1,-,N/A,,Clear,40,2013-05-10 00:55:00
8:15 PM,62.6,39.6,43,30.10,10.0,NNE,6.9,-,N/A,,Clear,30,2013-05-10 01:15:00
8:35 PM,62.1,40.8,46,30.10,10.0,NE,6.9,-,N/A,,Mostly Cloudy,40,2013-05-10 01:35:00
8:55 PM,60.4,41.0,49,30.10,10.0,NE,5.8,-,N/A,,Scattered Clouds,50,2013-05-10 01:55:00
9:15 PM,58.5,41.4,53,30.11,10.0,Calm,Calm,-,N/A,,Scattered Clouds,0,2013-05-10 02:15:00
9:35 PM,58.5,41.5,53,30.12,10.0,Calm,Calm,-,N/A,,Mostly Cloudy,0,2013-05-10 02:35:00
9:55 PM,57.4,41.9,56,30.12,10.0,Calm,Calm,-,N/A,,Scattered Clouds,0,2013-05-10 02:55:00
10:15 PM,54.7,42.1,62,30.13,10.0,Calm,Calm,-,N/A,,Clear,0,2013-05-10 03:15:00
10:35 PM,55.8,42.1,60,30.13,10.0,Calm,Calm,-,N/A,,Clear,0,2013-05-10 03:35:00
10:55 PM,54.0,41.9,64,30.14,10.0,Calm,Calm,-,N/A,,Clear,0,2013-05-10 03:55:00
11:15 PM,51.1,41.7,70,30.14,10.0,Calm,Calm,-,N/A,,Clear,0,2013-05-10 04:15:00
11:35 PM,49.6,41.4,73,30.14,10.0,Calm,Calm,-,N/A,,Clear,0,2013-05-10 04:35:00